• Em Portugal
  • Lista de países
  • Para 7 dias
  • Temperatura da água
  • Mapas de satélite
  • Mapa do tempo
  • Widgets de tempo
  • user-avatar
    Iniciar Sessão

    Previsão horária em Marmaris

    Hoje, 11 Dezembro, Segunda-feira

    Tempo Temperatura Precipitação Vento Pressão Humidade
    00:00 +13°C° 0,1 mm 2 m/s 762 mmHg 89%
    01:00 +13°C° 0,1 mm 2 m/s 762 mmHg 90%
    02:00 +12°C° 0,1 mm 2 m/s 762 mmHg 90%
    03:00 +12°C° 0 mm 2 m/s 763 mmHg 90%
    04:00 +12°C° 0 mm 2 m/s 763 mmHg 89%
    05:00 +12°C° 0 mm 2 m/s 763 mmHg 89%
    06:00 +12°C° 0 mm 2 m/s 763 mmHg 88%
    07:00 +12°C° 0 mm 2 m/s 763 mmHg 87%
    08:00 +12°C° 0 mm 2 m/s 763 mmHg 85%
    09:00 +14°C° 0 mm 2 m/s 764 mmHg 78%
    10:00 +16°C° 0 mm 2 m/s 764 mmHg 70%
    11:00 +18°C° 0 mm 2 m/s 764 mmHg 63%
    12:00 +18°C° 0 mm 2 m/s 764 mmHg 62%
    13:00 +19°C° 0 mm 2 m/s 764 mmHg 61%
    14:00 +19°C° 0 mm 2 m/s 764 mmHg 60%
    15:00 +18°C° 0 mm 2 m/s 764 mmHg 67%
    16:00 +16°C° 0 mm 2 m/s 764 mmHg 75%
    17:00 +15°C° 0 mm 2 m/s 764 mmHg 82%
    18:00 +15°C° 0 mm 2 m/s 764 mmHg 84%
    19:00 +14°C° 0 mm 2 m/s 764 mmHg 86%
    20:00 +14°C° 0 mm 2 m/s 764 mmHg 87%
    21:00 +14°C° 0 mm 2 m/s 764 mmHg 88%
    22:00 +14°C° 0 mm 2 m/s 764 mmHg 89%
    23:00 +13°C° 0 mm 1 m/s 764 mmHg 89%

    Amanhã, 12 Dezembro, Terça-feira

    Tempo Temperatura Precipitação Vento Pressão Humidade
    00:00 +13°C° 0 mm 1 m/s 764 mmHg 89%
    01:00 +14°C° 0 mm 1 m/s 764 mmHg 88%
    02:00 +14°C° 0 mm 1 m/s 764 mmHg 88%
    03:00 +13°C° 0 mm 1 m/s 764 mmHg 87%
    04:00 +13°C° 0 mm 1 m/s 764 mmHg 87%
    05:00 +13°C° 0 mm 1 m/s 764 mmHg 87%
    06:00 +13°C° 0 mm 1 m/s 764 mmHg 85%
    07:00 +14°C° 0 mm 1 m/s 764 mmHg 83%
    08:00 +14°C° 0 mm 1 m/s 764 mmHg 81%
    09:00 +16°C° 0 mm 1 m/s 764 mmHg 74%
    10:00 +19°C° 0 mm 1 m/s 764 mmHg 66%
    11:00 +21°C° 0 mm 1 m/s 764 mmHg 58%
    12:00 +21°C° 0 mm 1 m/s 764 mmHg 56%
    13:00 +20°C° 0 mm 2 m/s 763 mmHg 54%
    14:00 +21°C° 0 mm 2 m/s 763 mmHg 53%
    15:00 +19°C° 0 mm 2 m/s 763 mmHg 60%
    16:00 +17°C° 0 mm 2 m/s 763 mmHg 67%
    17:00 +16°C° 0 mm 3 m/s 763 mmHg 74%
    18:00 +14°C° 0 mm 3 m/s 763 mmHg 75%
    19:00 +14°C° 0 mm 3 m/s 763 mmHg 76%
    20:00 +14°C° 0 mm 3 m/s 763 mmHg 77%
    21:00 +13°C° 0 mm 3 m/s 763 mmHg 76%
    22:00 +13°C° 0 mm 3 m/s 763 mmHg 76%
    23:00 +13°C° 0 mm 3 m/s 763 mmHg 75%

    Depois de amanhã, 13 Dezembro, Quarta-feira

    Tempo Temperatura Precipitação Vento Pressão Humidade
    00:00 +13°C° 0 mm 3 m/s 763 mmHg 75%
    01:00 +12°C° 0 mm 3 m/s 763 mmHg 74%
    02:00 +12°C° 0 mm 3 m/s 763 mmHg 74%
    03:00 +12°C° 0 mm 3 m/s 763 mmHg 73%
    04:00 +12°C° 0 mm 3 m/s 762 mmHg 72%
    05:00 +12°C° 0 mm 3 m/s 762 mmHg 72%
    06:00 +12°C° 0 mm 3 m/s 762 mmHg 71%
    07:00 +12°C° 0 mm 3 m/s 762 mmHg 69%
    08:00 +12°C° 0 mm 3 m/s 762 mmHg 68%
    09:00 +16°C° 0 mm 3 m/s 762 mmHg 60%
    10:00 +18°C° 0 mm 3 m/s 762 mmHg 51%
    11:00 +21°C° 0 mm 3 m/s 762 mmHg 43%
    12:00 +21°C° 0 mm 3 m/s 762 mmHg 42%
    13:00 +21°C° 0 mm 3 m/s 761 mmHg 40%
    14:00 +22°C° 0 mm 4 m/s 761 mmHg 39%
    15:00 +20°C° 0 mm 4 m/s 761 mmHg 46%
    16:00 +18°C° 0 mm 3 m/s 761 mmHg 54%
    17:00 +16°C° 0 mm 3 m/s 761 mmHg 62%
    18:00 +14°C° 0 mm 3 m/s 761 mmHg 62%
    19:00 +14°C° 0 mm 3 m/s 761 mmHg 63%
    20:00 +13°C° 0 mm 3 m/s 761 mmHg 63%
    21:00 +13°C° 0 mm 3 m/s 761 mmHg 63%
    22:00 +13°C° 0 mm 3 m/s 761 mmHg 62%
    23:00 +12°C° 0 mm 3 m/s 761 mmHg 62%

    14 Dezembro, Quinta-feira

    Tempo Temperatura Precipitação Vento Pressão Humidade
    00:00 +12°C° 0 mm 3 m/s 760 mmHg 61%
    01:00 +13°C° 0 mm 2 m/s 760 mmHg 61%
    02:00 +13°C° 0 mm 2 m/s 760 mmHg 60%
    03:00 +13°C° 0 mm 2 m/s 760 mmHg 61%
    04:00 +12°C° 0 mm 2 m/s 760 mmHg 61%
    05:00 +12°C° 0 mm 2 m/s 760 mmHg 62%
    06:00 +12°C° 0 mm 2 m/s 760 mmHg 61%
    07:00 +13°C° 0 mm 2 m/s 760 mmHg 59%
    08:00 +13°C° 0 mm 2 m/s 760 mmHg 58%
    09:00 +15°C° 0 mm 2 m/s 760 mmHg 54%
    10:00 +17°C° 0 mm 2 m/s 760 mmHg 50%
    11:00 +19°C° 0 mm 2 m/s 760 mmHg 45%
    12:00 +19°C° 0 mm 2 m/s 760 mmHg 46%
    13:00 +20°C° 0 mm 2 m/s 759 mmHg 46%
    14:00 +20°C° 0 mm 2 m/s 759 mmHg 46%
    15:00 +18°C° 0 mm 2 m/s 759 mmHg 55%
    16:00 +16°C° 0 mm 2 m/s 759 mmHg 65%
    17:00 +15°C° 0 mm 2 m/s 759 mmHg 74%
    18:00 +14°C° 0 mm 2 m/s 759 mmHg 76%
    19:00 +14°C° 0 mm 2 m/s 759 mmHg 77%
    20:00 +13°C° 0 mm 2 m/s 759 mmHg 79%
    21:00 +13°C° 0 mm 2 m/s 760 mmHg 77%
    22:00 +13°C° 0 mm 2 m/s 760 mmHg 75%
    23:00 +13°C° 0 mm 2 m/s 760 mmHg 74%

    15 Dezembro, Sexta-feira

    Tempo Temperatura Precipitação Vento Pressão Humidade
    00:00 +13°C° 0 mm 2 m/s 760 mmHg 72%
    01:00 +12°C° 0 mm 2 m/s 760 mmHg 70%
    02:00 +12°C° 0 mm 2 m/s 759 mmHg 68%
    03:00 +12°C° 0 mm 2 m/s 759 mmHg 67%
    04:00 +12°C° 0 mm 2 m/s 759 mmHg 65%
    05:00 +12°C° 0 mm 2 m/s 759 mmHg 64%
    06:00 +12°C° 0 mm 2 m/s 759 mmHg 62%
    07:00 +12°C° 0 mm 1 m/s 760 mmHg 60%
    08:00 +12°C° 0 mm 1 m/s 760 mmHg 58%
    09:00 +14°C° 0 mm 1 m/s 760 mmHg 53%
    10:00 +18°C° 0 mm 1 m/s 760 mmHg 49%
    11:00 +19°C° 0 mm 2 m/s 760 mmHg 44%
    12:00 +19°C° 0 mm 2 m/s 760 mmHg 46%
    13:00 +19°C° 0 mm 2 m/s 759 mmHg 48%
    14:00 +19°C° 0 mm 2 m/s 759 mmHg 50%
    15:00 +18°C° 0 mm 2 m/s 759 mmHg 60%
    16:00 +16°C° 0 mm 2 m/s 760 mmHg 70%
    17:00 +14°C° 0 mm 2 m/s 760 mmHg 80%
    18:00 +14°C° 0 mm 2 m/s 760 mmHg 83%
    19:00 +13°C° 0 mm 2 m/s 760 mmHg 86%
    20:00 +12°C° 0 mm 1 m/s 760 mmHg 89%
    21:00 +12°C° 0 mm 1 m/s 761 mmHg 89%
    22:00 +12°C° 0 mm 1 m/s 761 mmHg 89%
    23:00 +12°C° 0 mm 1 m/s 761 mmHg 89%

    16 Dezembro, Sábado

    Tempo Temperatura Precipitação Vento Pressão Humidade
    00:00 +12°C° 0 mm 2 m/s 761 mmHg 89%
    01:00 +10°C° 0 mm 2 m/s 761 mmHg 88%
    02:00 +10°C° 0 mm 2 m/s 761 mmHg 88%
    03:00 +10°C° 0 mm 2 m/s 761 mmHg 87%
    04:00 +10°C° 0 mm 2 m/s 761 mmHg 86%
    05:00 +10°C° 0 mm 3 m/s 761 mmHg 85%
    06:00 +10°C° 0 mm 3 m/s 761 mmHg 83%
    07:00 +10°C° 0 mm 2 m/s 761 mmHg 81%
    08:00 +12°C° 0 mm 2 m/s 761 mmHg 79%
    09:00 +13°C° 0 mm 3 m/s 761 mmHg 70%
    10:00 +16°C° 0 mm 3 m/s 761 mmHg 62%
    11:00 +18°C° 0 mm 3 m/s 761 mmHg 54%
    12:00 +18°C° 0 mm 3 m/s 760 mmHg 54%
    13:00 +18°C° 0 mm 3 m/s 760 mmHg 54%
    14:00 +19°C° 0 mm 4 m/s 760 mmHg 55%
    15:00 +17°C° 0 mm 4 m/s 759 mmHg 63%
    16:00 +14°C° 0 mm 4 m/s 759 mmHg 71%
    17:00 +13°C° 0 mm 4 m/s 759 mmHg 80%
    18:00 +12°C° 0 mm 4 m/s 759 mmHg 82%
    19:00 +12°C° 0 mm 4 m/s 759 mmHg 84%
    20:00 +10°C° 0 mm 5 m/s 759 mmHg 87%
    21:00 +10°C° 0 mm 5 m/s 759 mmHg 88%
    22:00 +10°C° 0 mm 6 m/s 759 mmHg 89%
    23:00 +10°C° 0 mm 6 m/s 759 mmHg 90%
    Mostrar mais